#�ϑ�����,���ϕ���,���ϕ���,�ő啗��,�ő啗����������,�ő�u�ԕ���,�ő�u�ԕ�����������
#(�N����),(m/s)   ,(16����),(m/s)   ,(16����)        ,(m/s)       ,(16����)            
2012/10/18 0:01,0.4,8,0.4,8,0.5,4
2012/10/18 0:02,0.4,8,0.4,7,1.1,5
2012/10/18 0:03,0.5,8,0.5,7,1.5,5
2012/10/18 0:04,0.6,8,0.6,8,1.3,5
2012/10/18 0:05,0.6,7,0.6,8,0.9,5
2012/10/18 0:06,0.5,6,0.6,8,0,13
2012/10/18 0:07,0.4,5,0.4,8,1,8
2012/10/18 0:08,0.5,5,0.5,8,1,6
2012/10/18 0:09,0.5,5,0.5,8,1.1,4
2012/10/18 0:10,0.6,5,0.6,8,1.4,6
2012/10/18 0:11,0.7,5,0.7,5,1.8,5
2012/10/18 0:12,0.8,5,0.8,5,1.5,5
2012/10/18 0:13,0.7,5,0.8,5,1.5,6
2012/10/18 0:14,0.7,4,0.7,5,0.9,3
2012/10/18 0:15,0.7,4,0.7,5,0.6,16
2012/10/18 0:16,0.7,4,0.7,5,1.3,15
2012/10/18 0:17,0.8,4,0.8,5,1,6
2012/10/18 0:18,0.8,4,0.8,5,1.5,7
2012/10/18 0:19,0.8,5,0.8,5,1.4,6
2012/10/18 0:20,0.8,5,0.8,5,1.1,6
2012/10/18 0:21,0.7,5,0.8,5,1.1,7
2012/10/18 0:22,0.6,6,0.7,5,1,8
2012/10/18 0:23,0.6,7,0.6,4,1,9
2012/10/18 0:24,0.5,7,0.6,4,0.4,5
2012/10/18 0:25,0.6,7,0.6,4,1.3,8
2012/10/18 0:26,0.6,7,0.6,4,1.5,7
2012/10/18 0:27,0.7,7,0.7,4,1.6,7
2012/10/18 0:28,0.6,7,0.7,4,0.8,7
2012/10/18 0:29,0.5,7,0.6,5,0.5,9
2012/10/18 0:30,0.6,8,0.6,5,1.9,8
2012/10/18 0:31,0.6,8,0.6,6,1.1,9
2012/10/18 0:32,0.6,8,0.6,7,1.3,8
2012/10/18 0:33,0.7,8,0.7,7,3,8
2012/10/18 0:34,0.9,8,0.9,8,2.6,7
2012/10/18 0:35,0.9,8,0.9,8,1.1,6
2012/10/18 0:36,0.8,8,0.8,8,1,7
2012/10/18 0:37,0.7,8,0.8,8,0.8,7
2012/10/18 0:38,0.8,8,0.8,8,0.9,8
2012/10/18 0:39,0.8,8,0.8,8,0.8,8
2012/10/18 0:40,0.8,7,0.8,8,1.5,6
2012/10/18 0:41,0.8,7,0.8,8,1.4,6
2012/10/18 0:42,0.8,7,0.8,8,1.5,6
2012/10/18 0:43,0.8,6,0.8,8,1.3,7
2012/10/18 0:44,0.6,6,0.7,8,0.8,5
2012/10/18 0:45,0.6,6,0.6,8,0.6,4
2012/10/18 0:46,0.6,6,0.6,8,0.9,6
2012/10/18 0:47,0.6,6,0.6,8,1.1,5
2012/10/18 0:48,0.7,6,0.7,8,1.5,6
2012/10/18 0:49,0.8,6,0.8,8,1.5,6
2012/10/18 0:50,0.7,6,0.8,7,1.4,6
2012/10/18 0:51,0.8,6,0.8,7,1.6,6
2012/10/18 0:52,0.7,6,0.8,7,1,5
2012/10/18 0:53,0.7,6,0.7,6,1.4,7
2012/10/18 0:54,0.8,6,0.8,6,1.5,7
2012/10/18 0:55,0.7,6,0.8,6,0.3,9
2012/10/18 0:56,0.7,6,0.7,6,1.4,8
2012/10/18 0:57,0.7,7,0.8,6,1.1,8
2012/10/18 0:58,0.7,7,0.7,6,1,5
2012/10/18 0:59,0.7,7,0.7,6,1,5
2012/10/18 1:00,0.7,6,0.7,6,1,7
2012/10/18 1:01,0.6,6,0.7,6,0.5,2
2012/10/18 1:02,0.6,6,0.6,6,0.5,2
2012/10/18 1:03,0.5,7,0.5,6,0.3,9
2012/10/18 1:04,0.5,7,0.5,6,1.6,7
2012/10/18 1:05,0.5,7,0.5,7,0.5,8
2012/10/18 1:06,0.4,7,0.5,7,0.3,8
2012/10/18 1:07,0.4,7,0.4,7,0.6,7
2012/10/18 1:08,0.4,7,0.4,7,1,6
2012/10/18 1:09,0.4,7,0.4,7,1,8
2012/10/18 1:10,0.4,7,0.4,6,1.6,5
2012/10/18 1:11,0.5,7,0.5,6,1.3,4
2012/10/18 1:12,0.6,7,0.6,7,1.1,3
2012/10/18 1:13,0.6,6,0.6,7,1.1,2
2012/10/18 1:14,0.5,5,0.6,7,0.6,3
2012/10/18 1:15,0.5,5,0.5,7,0.5,2
2012/10/18 1:16,0.5,4,0.5,7,0,2
2012/10/18 1:17,0.5,3,0.5,7,0.6,16
2012/10/18 1:18,0.5,3,0.5,7,0.5,16
2012/10/18 1:19,0.4,2,0.5,7,0.1,1
2012/10/18 1:20,0.3,2,0.4,7,0.1,10
2012/10/18 1:21,0.2,2,0.3,7,0.8,7
2012/10/18 1:22,0.2,3,0.2,7,0.8,7
2012/10/18 1:23,0.2,3,0.2,6,1.3,9
2012/10/18 1:24,0.2,4,0.3,5,1.4,8
2012/10/18 1:25,0.3,5,0.3,5,0.8,8
2012/10/18 1:26,0.3,6,0.3,4,0.4,15
2012/10/18 1:27,0.3,7,0.3,3,1.1,8
2012/10/18 1:28,0.3,7,0.3,3,0.6,9
2012/10/18 1:29,0.4,8,0.4,2,0.9,9
2012/10/18 1:30,0.5,8,0.5,8,1.8,9
2012/10/18 1:31,0.5,8,0.5,8,1.8,10
2012/10/18 1:32,0.5,9,0.5,8,0.5,6
2012/10/18 1:33,0.4,9,0.5,8,0.6,10
2012/10/18 1:34,0.4,10,0.4,8,0.4,13
2012/10/18 1:35,0.4,10,0.4,8,0.6,12
2012/10/18 1:36,0.4,11,0.4,8,0.8,15
2012/10/18 1:37,0.4,11,0.4,8,1.5,1
2012/10/18 1:38,0.5,13,0.5,8,1.5,1
2012/10/18 1:39,0.5,13,0.5,8,0.4,1
2012/10/18 1:40,0.4,14,0.5,8,0.1,13
2012/10/18 1:41,0.3,14,0.4,8,0.3,2
2012/10/18 1:42,0.3,14,0.3,9,0.3,15
2012/10/18 1:43,0.3,14,0.3,12,0.3,8
2012/10/18 1:44,0.3,14,0.3,12,0.1,8
2012/10/18 1:45,0.3,14,0.3,12,0.9,9
2012/10/18 1:46,0.3,14,0.3,12,1.5,8
2012/10/18 1:47,0.3,13,0.3,12,1.5,10
2012/10/18 1:48,0.3,12,0.3,13,1,9
2012/10/18 1:49,0.3,11,0.3,13,1,10
2012/10/18 1:50,0.4,10,0.4,14,1.1,8
2012/10/18 1:51,0.4,10,0.4,11,1.8,8
2012/10/18 1:52,0.5,9,0.5,10,1.5,7
2012/10/18 1:53,0.5,9,0.5,10,0.1,9
2012/10/18 1:54,0.5,9,0.5,10,0.1,9
2012/10/18 1:55,0.5,9,0.5,10,0,9
2012/10/18 1:56,0.5,9,0.5,10,1.4,7
2012/10/18 1:57,0.5,9,0.5,10,1.9,8
2012/10/18 1:58,0.5,8,0.5,10,1.1,7
2012/10/18 1:59,0.5,8,0.5,10,0.9,7
2012/10/18 2:00,0.5,8,0.5,10,0.6,10
2012/10/18 2:01,0.5,8,0.5,10,1.3,7
2012/10/18 2:02,0.5,8,0.5,9,1.3,7
2012/10/18 2:03,0.5,8,0.5,9,1.1,7
2012/10/18 2:04,0.5,7,0.5,9,0.1,2
2012/10/18 2:05,0.5,7,0.5,9,0.6,7
2012/10/18 2:06,0.6,7,0.6,7,1.5,8
2012/10/18 2:07,0.5,7,0.6,7,1.4,9
2012/10/18 2:08,0.5,7,0.5,7,1.4,8
2012/10/18 2:09,0.6,7,0.6,7,2,9
2012/10/18 2:10,0.7,7,0.7,7,1.8,9
2012/10/18 2:11,0.6,8,0.7,7,1.3,8
2012/10/18 2:12,0.6,8,0.6,7,1.5,8
2012/10/18 2:13,0.6,8,0.6,7,1.5,8
2012/10/18 2:14,0.6,8,0.6,7,0.1,9
2012/10/18 2:15,0.6,9,0.6,7,0.1,8
2012/10/18 2:16,0.5,9,0.6,7,0.6,11
2012/10/18 2:17,0.5,10,0.5,7,1.3,13
2012/10/18 2:18,0.5,11,0.5,7,1.1,16
2012/10/18 2:19,0.4,12,0.5,7,0.9,15
2012/10/18 2:20,0.4,13,0.4,7,0.1,2
2012/10/18 2:21,0.3,15,0.4,8,0.1,2
2012/10/18 2:22,0.2,15,0.3,8,0.1,2
2012/10/18 2:23,0.2,15,0.2,8,0.8,15
2012/10/18 2:24,0.3,15,0.3,8,1.4,15
2012/10/18 2:25,0.3,15,0.3,9,1.4,15
2012/10/18 2:26,0.4,15,0.4,10,1.3,12
2012/10/18 2:27,0.4,15,0.4,10,1.3,11
2012/10/18 2:28,0.4,15,0.4,11,1.1,11
2012/10/18 2:29,0.5,14,0.5,14,1.3,16
2012/10/18 2:30,0.5,14,0.5,14,1.8,16
2012/10/18 2:31,0.6,14,0.6,14,1.3,3
2012/10/18 2:32,0.7,14,0.7,14,1.6,4
2012/10/18 2:33,0.9,15,0.9,15,2.2,3
2012/10/18 2:34,0.9,16,0.9,15,2,2
2012/10/18 2:35,0.9,1,0.9,15,1.3,3
2012/10/18 2:36,0.9,2,0.9,15,1,5
2012/10/18 2:37,0.9,2,0.9,15,1,4
2012/10/18 2:38,0.9,3,0.9,15,1,5
2012/10/18 2:39,0.9,3,0.9,15,0.8,5
2012/10/18 2:40,0.8,4,0.9,15,0.9,6
2012/10/18 2:41,0.9,4,0.9,15,1.3,7
2012/10/18 2:42,0.8,4,0.9,15,1.6,9
2012/10/18 2:43,0.8,5,0.8,15,2,8
2012/10/18 2:44,0.7,5,0.8,16,1.1,8
2012/10/18 2:45,0.8,6,0.8,1,2.5,8
2012/10/18 2:46,0.8,6,0.8,2,2.6,9
2012/10/18 2:47,1.1,7,1.1,7,3.7,8
2012/10/18 2:48,1.3,7,1.3,7,4.1,8
2012/10/18 2:49,1.4,8,1.4,7,3.1,8
2012/10/18 2:50,1.5,8,1.5,8,1.8,8
2012/10/18 2:51,1.6,8,1.6,8,3.6,9
2012/10/18 2:52,1.8,8,1.8,8,3.8,8
2012/10/18 2:53,1.8,8,1.8,8,3.3,8
2012/10/18 2:54,1.9,8,1.9,8,3.5,8
2012/10/18 2:55,2,9,2,8,2.9,9
2012/10/18 2:56,2,9,2,8,2.6,9
2012/10/18 2:57,1.8,9,2,8,2,10
2012/10/18 2:58,1.7,9,1.8,8,2.1,9
2012/10/18 2:59,1.6,10,1.7,8,1.1,14
2012/10/18 3:00,1.5,10,1.6,8,1.4,12
2012/10/18 3:01,1.4,10,1.5,8,1.4,12
2012/10/18 3:02,1.2,11,1.4,8,1.4,14
2012/10/18 3:03,1.2,12,1.2,8,1.6,15
2012/10/18 3:04,1.1,12,1.2,8,1.3,16
2012/10/18 3:05,1,13,1.1,9,1.5,16
2012/10/18 3:06,0.9,14,1,9,1,15
2012/10/18 3:07,0.8,14,0.9,9,0.5,1
2012/10/18 3:08,0.7,15,0.8,9,0.9,1
2012/10/18 3:09,0.7,15,0.7,10,0.8,1
2012/10/18 3:10,0.6,16,0.7,10,0.5,1
2012/10/18 3:11,0.6,16,0.6,10,0.8,11
2012/10/18 3:12,0.5,1,0.6,11,0.9,12
2012/10/18 3:13,0.4,1,0.5,12,0.8,3
2012/10/18 3:14,0.4,2,0.4,12,1.1,6
2012/10/18 3:15,0.4,2,0.4,13,1.1,5
2012/10/18 3:16,0.5,3,0.5,14,1.4,7
2012/10/18 3:17,0.5,4,0.5,14,1.3,9
2012/10/18 3:18,0.5,5,0.5,15,0.6,6
2012/10/18 3:19,0.5,6,0.5,15,1.3,8
2012/10/18 3:20,0.5,6,0.5,16,0.5,10
2012/10/18 3:21,0.5,6,0.5,16,0.9,9
2012/10/18 3:22,0.6,7,0.6,6,1.9,8
2012/10/18 3:23,0.6,7,0.6,6,1.4,9
2012/10/18 3:24,0.6,8,0.6,6,1.3,10
2012/10/18 3:25,0.5,8,0.6,6,0.8,10
2012/10/18 3:26,0.5,8,0.5,6,0.5,8
2012/10/18 3:27,0.5,8,0.5,6,0.4,6
2012/10/18 3:28,0.5,8,0.5,6,0.5,7
2012/10/18 3:29,0.5,8,0.5,6,0.5,9
2012/10/18 3:30,0.5,9,0.5,6,0.5,10
2012/10/18 3:31,0.5,9,0.5,6,1,10
2012/10/18 3:32,0.4,10,0.5,7,0.6,10
2012/10/18 3:33,0.3,10,0.4,7,0.3,12
2012/10/18 3:34,0.3,10,0.3,8,0.8,15
2012/10/18 3:35,0.3,10,0.3,8,0.3,8
2012/10/18 3:36,0.3,11,0.3,8,1.3,1
2012/10/18 3:37,0.4,12,0.4,8,1.4,1
2012/10/18 3:38,0.3,13,0.4,8,0.6,1
2012/10/18 3:39,0.4,14,0.4,8,1,16
2012/10/18 3:40,0.4,15,0.4,9,1.4,14
2012/10/18 3:41,0.4,16,0.4,9,1.1,15
2012/10/18 3:42,0.5,16,0.5,16,1.4,1
2012/10/18 3:43,0.5,16,0.5,16,0.6,16
2012/10/18 3:44,0.5,1,0.5,16,0.9,3
2012/10/18 3:45,0.6,1,0.6,1,1.4,5
2012/10/18 3:46,0.6,1,0.6,1,1.3,5
2012/10/18 3:47,0.6,2,0.6,1,0.5,6
2012/10/18 3:48,0.6,2,0.6,1,1,5
2012/10/18 3:49,0.6,3,0.6,1,0.9,4
2012/10/18 3:50,0.6,4,0.6,1,1.4,4
2012/10/18 3:51,0.5,4,0.6,1,0.8,15
2012/10/18 3:52,0.5,4,0.5,1,0.9,5
2012/10/18 3:53,0.5,4,0.5,1,0.4,10
2012/10/18 3:54,0.5,5,0.5,1,1.5,9
2012/10/18 3:55,0.5,5,0.5,1,1.9,7
2012/10/18 3:56,0.7,6,0.7,6,3.1,8
2012/10/18 3:57,0.7,6,0.7,6,2.1,7
2012/10/18 3:58,0.8,6,0.8,6,2.5,7
2012/10/18 3:59,0.9,7,0.9,6,2.1,9
2012/10/18 4:00,0.9,7,0.9,6,1,9
2012/10/18 4:01,0.8,7,0.9,6,0.5,3
2012/10/18 4:02,0.9,7,0.9,6,0.8,2
2012/10/18 4:03,0.9,6,0.9,6,0.8,4
2012/10/18 4:04,0.9,5,0.9,6,1,2
2012/10/18 4:05,0.8,5,0.9,6,0.5,1
2012/10/18 4:06,0.6,4,0.8,6,0.6,7
2012/10/18 4:07,0.7,5,0.7,6,3.9,8
2012/10/18 4:08,0.7,5,0.7,6,4.5,9
2012/10/18 4:09,0.8,5,0.8,7,3.2,9
2012/10/18 4:10,0.9,6,0.9,7,2.1,9
2012/10/18 4:11,1.1,7,1.1,7,2.5,10
2012/10/18 4:12,1.2,8,1.2,8,3,10
2012/10/18 4:13,1.4,9,1.4,9,3.1,10
2012/10/18 4:14,1.3,9,1.4,9,1.8,10
2012/10/18 4:15,1.5,9,1.5,9,3.1,9
2012/10/18 4:16,1.6,10,1.6,10,2.2,8
2012/10/18 4:17,1.5,10,1.6,10,2.5,9
2012/10/18 4:18,1.4,10,1.5,10,1.3,11
2012/10/18 4:19,1.3,10,1.4,10,2,14
2012/10/18 4:20,1.3,11,1.3,10,2,15
2012/10/18 4:21,1.2,11,1.3,10,1.4,9
2012/10/18 4:22,1.1,11,1.2,10,2.4,8
2012/10/18 4:23,1.1,10,1.1,10,2.4,8
2012/10/18 4:24,1.2,10,1.2,10,2,9
2012/10/18 4:25,1.1,10,1.2,10,2.6,8
2012/10/18 4:26,1.1,10,1.1,10,1.5,8
2012/10/18 4:27,1,10,1.1,10,0.8,10
2012/10/18 4:28,0.9,10,1,10,1.1,5
2012/10/18 4:29,0.8,9,0.9,10,0.5,13
2012/10/18 4:30,0.7,9,0.8,11,0.6,12
2012/10/18 4:31,0.6,9,0.7,11,0.6,12
2012/10/18 4:32,0.7,8,0.7,10,2.7,5
2012/10/18 4:33,0.7,7,0.7,10,2.9,6
2012/10/18 4:34,0.7,6,0.7,10,1.9,1
2012/10/18 4:35,0.8,4,0.8,10,3.9,3
2012/10/18 4:36,1,2,1,10,3.8,1
2012/10/18 4:37,1.1,2,1.1,2,3.2,2
2012/10/18 4:38,1.4,1,1.4,1,5.7,14
2012/10/18 4:39,1.7,1,1.7,1,7.4,16
2012/10/18 4:40,2,1,2,1,4.3,16
2012/10/18 4:41,2.1,1,2.1,1,3.6,1
2012/10/18 4:42,2.2,1,2.2,1,3.6,16
2012/10/18 4:43,2.1,16,2.2,1,3.1,16
2012/10/18 4:44,2.2,1,2.2,1,2.5,3
2012/10/18 4:45,2,1,2.1,1,1.9,2
2012/10/18 4:46,1.9,16,1.9,1,2.2,15
2012/10/18 4:47,1.9,16,1.9,1,3.2,4
2012/10/18 4:48,1.8,1,1.9,1,4.7,16
2012/10/18 4:49,2,1,2,1,8.3,1
2012/10/18 4:50,2.1,1,2.1,1,5.7,1
2012/10/18 4:51,2.1,1,2.1,1,4.1,16
2012/10/18 4:52,2.1,1,2.1,1,3.7,16
2012/10/18 4:53,2.1,1,2.1,1,1.8,16
2012/10/18 4:54,2,1,2.1,1,1,3
2012/10/18 4:55,2,1,2,1,1.3,4
2012/10/18 4:56,2,1,2,1,1.5,15
2012/10/18 4:57,2,1,2,1,7.6,15
2012/10/18 4:58,1.9,1,2,1,4.7,16
2012/10/18 4:59,1.6,1,1.9,1,5,16
2012/10/18 5:00,1.3,1,1.6,1,3,4
2012/10/18 5:01,1.3,2,1.3,1,3.6,6
2012/10/18 5:02,1.4,2,1.4,1,3.7,6
2012/10/18 5:03,1.6,3,1.6,1,3.1,9
2012/10/18 5:04,1.6,4,1.6,1,3,9
2012/10/18 5:05,1.7,3,1.7,1,2.2,1
2012/10/18 5:06,1.7,3,1.7,1,1.3,2
2012/10/18 5:07,1.5,3,1.7,1,3.1,4
2012/10/18 5:08,1.5,3,1.5,1,2.5,1
2012/10/18 5:09,1.3,3,1.5,3,1,16
2012/10/18 5:10,1.4,3,1.4,3,2.2,2
2012/10/18 5:11,1.7,2,1.7,3,10.2,16
2012/10/18 5:12,1.9,1,1.9,2,10.9,15
2012/10/18 5:13,2.1,1,2.1,1,7.9,16
2012/10/18 5:14,2.3,1,2.3,1,7.7,1
2012/10/18 5:15,2.7,1,2.7,1,10.6,15
2012/10/18 5:16,3.2,1,3.2,1,10.2,16
2012/10/18 5:17,3.5,16,3.5,16,9.5,16
2012/10/18 5:18,4,16,4,16,10.7,16
2012/10/18 5:19,4.4,16,4.4,16,9.4,16
2012/10/18 5:20,4.7,16,4.7,16,7.1,15
2012/10/18 5:21,5,16,5,16,10.9,16
2012/10/18 5:22,5,16,5,16,9.4,16
2012/10/18 5:23,5,16,5,16,6.9,16
2012/10/18 5:24,5.2,16,5.2,16,10.7,15
2012/10/18 5:25,4.9,16,5.2,16,6.3,16
2012/10/18 5:26,4.6,16,4.9,16,5.4,15
2012/10/18 5:27,4.6,16,4.7,16,7.6,16
2012/10/18 5:28,4.4,16,4.6,16,9.1,16
2012/10/18 5:29,4.6,16,4.6,16,12.2,2
2012/10/18 5:30,4.6,16,4.6,16,6.9,14
2012/10/18 5:31,4.5,16,4.7,16,11.4,16
2012/10/18 5:32,4.4,16,4.4,16,9.1,16
2012/10/18 5:33,4.6,16,4.6,16,11.9,16
2012/10/18 5:34,4.6,16,4.8,16,11.6,16
2012/10/18 5:35,4.9,16,4.9,16,13.1,16
2012/10/18 5:36,5.4,16,5.4,16,16.8,16
2012/10/18 5:37,5.3,16,5.5,16,5.6,16
2012/10/18 5:38,5.5,16,5.5,16,14.8,1
2012/10/18 5:39,5.5,16,5.6,16,13.2,1
2012/10/18 5:40,5.4,16,5.5,16,6.1,16
2012/10/18 5:41,5.3,16,5.5,16,9.7,1
2012/10/18 5:42,5.6,16,5.6,16,10.1,16
2012/10/18 5:43,5.4,16,5.5,16,7.9,2
2012/10/18 5:44,5.2,16,5.4,16,7.6,16
2012/10/18 5:45,4.9,16,5.2,16,6.5,3
2012/10/18 5:46,4.3,1,4.8,16,5.1,16
2012/10/18 5:47,4.2,1,4.2,16,5.7,1
2012/10/18 5:48,3.8,1,4.2,16,4.9,15
2012/10/18 5:49,3.5,1,3.7,16,8.1,2
2012/10/18 5:50,3.5,1,3.6,16,6.3,15
2012/10/18 5:51,3.4,1,3.4,16,7.6,1
2012/10/18 5:52,3.3,1,3.3,16,11.4,1
2012/10/18 5:53,3.1,1,3.3,16,4.9,2
2012/10/18 5:54,3.1,1,3.2,16,7.4,1
2012/10/18 5:55,3,1,3.1,16,3.5,3
2012/10/18 5:56,3.1,1,3.2,1,5.5,2
2012/10/18 5:57,3,1,3.1,1,5.2,15
2012/10/18 5:58,3.1,1,3.1,1,5.7,16
2012/10/18 5:59,3.4,1,3.4,1,9.4,2
2012/10/18 6:00,3.2,1,3.3,1,3.2,16
2012/10/18 6:01,3.2,1,3.3,1,8.1,5
2012/10/18 6:02,3.1,1,3.3,1,8.4,2
2012/10/18 6:03,3.3,1,3.4,1,9.8,1
2012/10/18 6:04,3.2,1,3.3,1,5.8,14
2012/10/18 6:05,3.4,1,3.4,1,8.4,1
2012/10/18 6:06,3.6,1,3.6,1,10.7,15
2012/10/18 6:07,4,1,4,1,8.4,2
2012/10/18 6:08,4,1,4.1,1,8.5,2
2012/10/18 6:09,3.8,1,4,1,6.4,15
2012/10/18 6:10,3.9,1,3.9,1,5.7,1
2012/10/18 6:11,3.7,16,3.9,1,4.1,14
2012/10/18 6:12,3.8,1,3.8,1,8.2,16
2012/10/18 6:13,3.6,16,3.8,1,5.4,15
2012/10/18 6:14,3.8,16,3.9,1,7.5,15
2012/10/18 6:15,4.1,16,4.2,16,12.2,1
2012/10/18 6:16,3.9,16,4.1,16,4.4,15
2012/10/18 6:17,3.8,16,3.9,16,7.8,1
2012/10/18 6:18,3.8,16,3.8,16,6,16
2012/10/18 6:19,3.7,16,3.8,16,5.5,1
2012/10/18 6:20,3.8,16,3.8,16,6,16
2012/10/18 6:21,3.8,1,3.9,16,5,1
2012/10/18 6:22,3.4,1,3.8,16,2.6,1
2012/10/18 6:23,3.6,1,3.6,16,9.3,16
2012/10/18 6:24,3.5,16,3.6,16,6.7,1
2012/10/18 6:25,3,16,3.4,16,6.2,15
2012/10/18 6:26,3.3,16,3.3,16,9.7,16
2012/10/18 6:27,3.2,16,3.3,16,9,1
2012/10/18 6:28,3.1,16,3.3,16,7.1,2
2012/10/18 6:29,3.1,16,3.2,16,6.8,16
2012/10/18 6:30,3.3,16,3.3,16,10.6,16
2012/10/18 6:31,3.4,16,3.4,1,5.7,3
2012/10/18 6:32,3.7,16,3.7,16,9.3,16
2012/10/18 6:33,3.9,16,4,16,7.7,16
2012/10/18 6:34,3.9,16,3.9,16,6.2,16
2012/10/18 6:35,3.8,16,3.9,16,5.7,16
2012/10/18 6:36,3.9,16,3.9,16,10,16
2012/10/18 6:37,3.9,16,3.9,16,7.1,1
2012/10/18 6:38,3.9,16,3.9,16,5.2,16
2012/10/18 6:39,3.9,16,3.9,16,5.6,3
2012/10/18 6:40,3.9,16,3.9,16,12.6,16
2012/10/18 6:41,4.4,16,4.4,16,12.6,16
2012/10/18 6:42,4.5,16,4.5,16,8.7,1
2012/10/18 6:43,4.4,16,4.5,16,8.5,16
2012/10/18 6:44,4.7,16,4.7,16,11.6,1
2012/10/18 6:45,5,16,5,16,9,16
2012/10/18 6:46,5,16,5.1,16,10.6,16
2012/10/18 6:47,5.1,16,5.1,16,10,16
2012/10/18 6:48,5.2,16,5.2,16,7.6,1
2012/10/18 6:49,5.3,16,5.3,16,7.7,2
2012/10/18 6:50,5.5,16,5.6,16,12.1,16
2012/10/18 6:51,5.3,16,5.5,16,11.4,1
2012/10/18 6:52,5.4,16,5.4,16,10.5,16
2012/10/18 6:53,5.5,16,5.5,16,9.8,16
2012/10/18 6:54,5.1,16,5.5,16,6.8,16
2012/10/18 6:55,4.9,16,5.1,16,4.8,15
2012/10/18 6:56,4.8,16,5,16,7.6,16
2012/10/18 6:57,4.7,16,4.8,16,7.2,16
2012/10/18 6:58,4.6,16,4.7,16,5.2,15
2012/10/18 6:59,4.5,16,4.6,16,8.2,15
2012/10/18 7:00,4.2,16,4.6,16,7.5,1
2012/10/18 7:01,4.4,16,4.4,16,8.9,1
2012/10/18 7:02,3.9,16,4.3,16,7.1,14
2012/10/18 7:03,3.7,16,3.9,16,6.2,14
2012/10/18 7:04,4,16,4,16,11.3,16
2012/10/18 7:05,4.2,16,4.2,16,10.3,15
2012/10/18 7:06,4.4,16,4.4,16,10.3,16
2012/10/18 7:07,4.4,16,4.4,16,5.4,15
2012/10/18 7:08,4.5,16,4.5,16,6.5,15
2012/10/18 7:09,4.6,16,4.6,16,10.8,16
2012/10/18 7:10,4.9,16,4.9,16,11.4,15
2012/10/18 7:11,4.8,16,4.9,16,8.6,15
2012/10/18 7:12,5.2,16,5.2,16,9.3,16
2012/10/18 7:13,5.4,16,5.4,16,9.8,15
2012/10/18 7:14,5.2,16,5.4,16,7.6,1
2012/10/18 7:15,5.3,16,5.3,16,10,16
2012/10/18 7:16,5.2,16,5.2,16,9.8,15
2012/10/18 7:17,5.5,16,5.5,16,9.3,16
2012/10/18 7:18,5.5,16,5.6,16,8.2,16
2012/10/18 7:19,5.4,16,5.5,16,7.8,16
2012/10/18 7:20,5.2,16,5.3,16,9,15
2012/10/18 7:21,5.2,16,5.3,16,12.3,16
2012/10/18 7:22,5.2,16,5.3,16,11.6,15
2012/10/18 7:23,5.2,16,5.2,16,10.2,16
2012/10/18 7:24,5.4,16,5.4,16,9.7,1
2012/10/18 7:25,5.3,16,5.4,16,10.3,15
2012/10/18 7:26,5.3,16,5.3,16,7.9,15
2012/10/18 7:27,5.4,16,5.4,16,11.5,16
2012/10/18 7:28,5.5,16,5.6,16,10.7,1
2012/10/18 7:29,6,16,6,16,12.8,16
2012/10/18 7:30,6.1,16,6.1,16,11.8,16
2012/10/18 7:31,6.1,16,6.1,16,9.9,16
2012/10/18 7:32,6,16,6.1,16,7.6,1
2012/10/18 7:33,6,16,6,16,10.2,15
2012/10/18 7:34,6.1,16,6.1,16,12.4,16
2012/10/18 7:35,6,16,6,16,10.6,16
2012/10/18 7:36,6.4,16,6.4,16,16.5,16
2012/10/18 7:37,6.4,16,6.4,16,12.2,15
2012/10/18 7:38,6.5,16,6.5,16,11.5,16
2012/10/18 7:39,6.1,16,6.5,16,9.1,16
2012/10/18 7:40,6.1,16,6.1,16,11.1,16
2012/10/18 7:41,5.9,16,6,16,13,16
2012/10/18 7:42,5.9,16,6,16,10.9,16
2012/10/18 7:43,5.9,16,6,16,11.5,16
2012/10/18 7:44,6,16,6,16,11.8,16
2012/10/18 7:45,6,16,6.1,16,9.7,15
2012/10/18 7:46,5.7,16,6,16,9.3,15
2012/10/18 7:47,5.6,16,5.8,16,10,1
2012/10/18 7:48,5.5,16,5.5,16,10,16
2012/10/18 7:49,5.6,16,5.6,16,10.5,1
2012/10/18 7:50,5.6,16,5.6,16,10.9,15
2012/10/18 7:51,5.7,16,5.8,16,11.3,16
2012/10/18 7:52,5.6,16,5.7,16,5.6,1
2012/10/18 7:53,5.6,16,5.6,16,11.4,1
2012/10/18 7:54,5.3,16,5.6,16,8.2,1
2012/10/18 7:55,5.3,16,5.4,16,13.3,15
2012/10/18 7:56,5.4,16,5.4,16,11,16
2012/10/18 7:57,5.4,16,5.4,16,9.5,16
2012/10/18 7:58,5.5,16,5.5,16,11,1
2012/10/18 7:59,5.4,16,5.5,16,10.8,1
2012/10/18 8:00,5.4,16,5.5,16,8.1,1
2012/10/18 8:01,5.2,16,5.3,16,6.3,15
2012/10/18 8:02,5.4,16,5.4,16,11.9,15
2012/10/18 8:03,5.6,16,5.7,16,13.2,1
2012/10/18 8:04,5.9,16,5.9,16,14.2,16
2012/10/18 8:05,6.1,16,6.2,16,10.8,1
2012/10/18 8:06,5.9,16,6.1,16,8.2,16
2012/10/18 8:07,6,16,6,16,11.1,16
2012/10/18 8:08,6.1,16,6.2,16,15.4,16
2012/10/18 8:09,6.2,16,6.2,16,13.3,1
2012/10/18 8:10,6.3,16,6.3,16,16.1,16
2012/10/18 8:11,6.6,16,6.6,16,11.8,15
2012/10/18 8:12,6.4,16,6.6,16,8.5,16
2012/10/18 8:13,6,16,6.3,16,7.7,2
2012/10/18 8:14,6.1,16,6.1,16,14.9,16
2012/10/18 8:15,5.9,16,6.1,16,13.3,15
2012/10/18 8:16,6.1,16,6.1,16,12.4,1
2012/10/18 8:17,6.1,16,6.1,16,9.8,2
2012/10/18 8:18,5.7,16,6.1,16,10,2
2012/10/18 8:19,5.6,16,5.7,16,8.2,15
2012/10/18 8:20,5.4,16,5.6,16,10,2
2012/10/18 8:21,5.5,16,5.6,16,11.5,16
2012/10/18 8:22,5.5,16,5.5,16,9.2,2
2012/10/18 8:23,5.9,16,5.9,16,11.3,2
2012/10/18 8:24,5.7,16,5.9,16,9.4,15
2012/10/18 8:25,5.6,1,5.7,16,11.1,16
2012/10/18 8:26,5.8,1,5.8,16,14,2
2012/10/18 8:27,6.1,1,6.1,16,15.6,16
2012/10/18 8:28,6.3,16,6.3,16,12.2,15
2012/10/18 8:29,6.5,16,6.5,16,12.4,2
2012/10/18 8:30,6.7,16,6.7,16,11.7,16
2012/10/18 8:31,6.7,16,6.8,16,8.7,16
2012/10/18 8:32,6.9,16,6.9,16,11.4,1
2012/10/18 8:33,6.8,16,6.9,16,15.2,16
2012/10/18 8:34,6.9,16,6.9,16,9.8,1
2012/10/18 8:35,7.3,16,7.3,16,15.8,1
2012/10/18 8:36,7.2,16,7.3,16,11.3,16
2012/10/18 8:37,6.9,16,7.1,16,12.8,16
2012/10/18 8:38,7.1,16,7.1,16,16.2,1
2012/10/18 8:39,7.2,16,7.3,16,14.3,1
2012/10/18 8:40,7.1,16,7.3,16,12.4,2
2012/10/18 8:41,7.2,16,7.2,16,13.6,1
2012/10/18 8:42,7.3,16,7.4,16,15.3,15
2012/10/18 8:43,7.1,16,7.3,16,12.5,16
2012/10/18 8:44,7.2,16,7.2,16,10.6,2
2012/10/18 8:45,7.1,16,7.2,16,14.5,16
2012/10/18 8:46,7,16,7.1,16,12.5,16
2012/10/18 8:47,7,16,7.2,16,12.7,1
2012/10/18 8:48,6.8,16,7,16,10.6,2
2012/10/18 8:49,6.6,16,6.7,16,10.9,15
2012/10/18 8:50,7.1,16,7.1,16,15.3,1
2012/10/18 8:51,7.3,16,7.4,16,18.5,15
2012/10/18 8:52,7.1,16,7.2,16,8.6,15
2012/10/18 8:53,7.5,16,7.5,16,15.9,15
2012/10/18 8:54,7.5,16,7.6,16,15,1
2012/10/18 8:55,7.4,16,7.6,16,10,15
2012/10/18 8:56,7.3,16,7.5,16,10.3,1
2012/10/18 8:57,7.2,16,7.3,16,9.7,16
2012/10/18 8:58,7.2,16,7.2,16,10.6,16
2012/10/18 8:59,7.3,16,7.3,16,11.8,2
2012/10/18 9:00,6.7,16,7.3,16,10.3,16
2012/10/18 9:01,6.3,16,6.6,16,10.8,16
2012/10/18 9:02,6.3,16,6.4,16,10.2,15
2012/10/18 9:03,6.2,16,6.4,16,13.1,15
2012/10/18 9:04,6,16,6.2,16,9.1,15
2012/10/18 9:05,5.9,16,5.9,16,13.5,16
2012/10/18 9:06,6,16,6,16,11.4,16
2012/10/18 9:07,6.1,16,6.2,16,10.9,16
2012/10/18 9:08,5.8,16,6.2,16,8.9,16
2012/10/18 9:09,5.6,16,5.8,16,9.7,16
2012/10/18 9:10,5.5,16,5.6,16,8.6,1
2012/10/18 9:11,5.4,16,5.6,16,11.8,16
2012/10/18 9:12,5.4,16,5.4,16,9.1,1
2012/10/18 9:13,5.2,16,5.3,16,9.3,16
2012/10/18 9:14,5.4,16,5.4,16,12.2,15
2012/10/18 9:15,5.4,16,5.6,16,11.9,1
2012/10/18 9:16,5.3,16,5.5,16,9.7,1
2012/10/18 9:17,5.5,16,5.5,16,12.1,16
2012/10/18 9:18,5.8,16,5.9,16,11.1,15
2012/10/18 9:19,6.1,16,6.1,16,10.5,16
2012/10/18 9:20,6.3,16,6.3,16,16.6,15
2012/10/18 9:21,6.4,16,6.4,16,9.9,16
2012/10/18 9:22,6.3,16,6.4,16,10.5,1
2012/10/18 9:23,6.3,16,6.3,16,9.8,16
2012/10/18 9:24,6.1,16,6.3,16,9.9,16
2012/10/18 9:25,6.3,16,6.3,16,12.4,16
2012/10/18 9:26,6.3,16,6.3,16,10.2,16
2012/10/18 9:27,5.9,16,6.3,16,7.1,1
2012/10/18 9:28,5.9,16,5.9,16,12.4,15
2012/10/18 9:29,6.1,16,6.1,16,15.4,16
2012/10/18 9:30,6.2,16,6.2,16,14,16
2012/10/18 9:31,6,16,6.2,16,7.9,16
2012/10/18 9:32,6.2,16,6.2,16,11.9,2
2012/10/18 9:33,6.4,16,6.5,16,15,1
2012/10/18 9:34,6.4,16,6.5,16,10.7,15
2012/10/18 9:35,6.3,16,6.4,16,13.8,16
2012/10/18 9:36,6.2,16,6.3,16,9.8,16
2012/10/18 9:37,6.6,16,6.6,16,12.1,16
2012/10/18 9:38,6.5,16,6.7,16,11.9,16
2012/10/18 9:39,6.3,16,6.4,16,11.8,15
2012/10/18 9:40,6.1,16,6.3,16,10.2,16
2012/10/18 9:41,6.5,16,6.5,16,13.9,16
2012/10/18 9:42,6.7,16,6.7,16,12.4,1
2012/10/18 9:43,6.4,16,6.7,16,10.3,16
2012/10/18 9:44,6.6,16,6.6,16,12.5,16
2012/10/18 9:45,6.6,16,6.6,16,11.9,15
2012/10/18 9:46,6.7,16,6.7,16,12.1,16
2012/10/18 9:47,6.8,16,6.8,16,15.8,1
2012/10/18 9:48,6.9,16,6.9,16,14.2,16
2012/10/18 9:49,7,16,7,16,11.3,16
2012/10/18 9:50,7,16,7,16,9,16
2012/10/18 9:51,6.7,16,7,16,7.9,1
2012/10/18 9:52,6.6,16,6.7,16,12.4,1
2012/10/18 9:53,7,16,7,16,14.8,16
2012/10/18 9:54,7.1,16,7.2,16,14.1,16
2012/10/18 9:55,7.2,16,7.2,16,13.5,16
2012/10/18 9:56,7,16,7.2,16,9.9,16
2012/10/18 9:57,7,16,7.1,16,11.1,1
2012/10/18 9:58,6.9,16,6.9,16,11.9,1
2012/10/18 9:59,6.6,16,6.8,16,11.4,16
2012/10/18 10:00,6.8,16,6.9,16,13.1,16
2012/10/18 10:01,7.1,16,7.1,16,12.7,16
2012/10/18 10:02,6.9,16,7.1,16,9,16
2012/10/18 10:03,6.7,16,6.8,16,11.5,14
2012/10/18 10:04,6.3,16,6.6,16,7.7,15
2012/10/18 10:05,6.1,16,6.4,16,10.8,1
2012/10/18 10:06,6.3,16,6.3,16,12.1,16
2012/10/18 10:07,6,16,6.3,16,7.9,16
2012/10/18 10:08,5.7,16,6,16,6.3,16
2012/10/18 10:09,6,16,6,16,12.7,16
2012/10/18 10:10,5.9,16,6,16,13.3,2
2012/10/18 10:11,6,16,6,16,12.6,16
2012/10/18 10:12,6.5,16,6.5,16,12.8,1
2012/10/18 10:13,6.5,16,6.5,16,10,16
2012/10/18 10:14,6.7,16,6.7,16,10.9,16
2012/10/18 10:15,6.5,16,6.7,16,6.3,16
2012/10/18 10:16,6.1,16,6.4,16,8.9,15
2012/10/18 10:17,6,16,6.1,16,6.3,16
2012/10/18 10:18,6.2,16,6.2,16,7.4,16
2012/10/18 10:19,6,16,6.2,16,8.7,16
2012/10/18 10:20,5.8,16,6,16,9.4,1
2012/10/18 10:21,5.6,16,5.8,16,12.8,16
2012/10/18 10:22,5.4,16,5.6,16,13.2,16
2012/10/18 10:23,5.7,16,5.7,16,12.5,16
2012/10/18 10:24,5.7,16,5.8,16,9.8,1
2012/10/18 10:25,6,16,6,16,10.8,16
2012/10/18 10:26,6.3,16,6.3,16,11.6,15
2012/10/18 10:27,6.3,16,6.3,16,7,16
2012/10/18 10:28,6.3,16,6.3,16,7.6,16
2012/10/18 10:29,6.3,16,6.3,16,9.9,16
2012/10/18 10:30,6.2,16,6.3,16,8.1,1
2012/10/18 10:31,5.9,16,6.1,16,8.9,16
2012/10/18 10:32,5.6,16,5.9,16,6.4,15
2012/10/18 10:33,4.9,16,5.5,16,6,14
2012/10/18 10:34,4.6,16,4.9,16,5.5,14
2012/10/18 10:35,4.3,16,4.6,16,8.3,1
2012/10/18 10:36,4.4,16,4.4,16,12.3,16
2012/10/18 10:37,4.2,16,4.4,16,8.2,16
2012/10/18 10:38,4.1,16,4.2,16,8.4,2
2012/10/18 10:39,4,16,4.1,16,9.1,16
2012/10/18 10:40,4.3,16,4.3,16,10.1,16
2012/10/18 10:41,4.5,16,4.5,16,11.8,16
2012/10/18 10:42,4.8,16,4.8,16,11.1,16
2012/10/18 10:43,5.1,16,5.1,16,11.5,15
2012/10/18 10:44,5.1,16,5.1,16,7.4,16
2012/10/18 10:45,5,16,5.1,16,5.7,2
2012/10/18 10:46,4.6,16,5,16,3.8,1
2012/10/18 10:47,4.6,16,4.6,16,7.5,1
2012/10/18 10:48,4.9,16,4.9,16,10.7,15
2012/10/18 10:49,5.1,16,5.1,16,11.8,16
2012/10/18 10:50,4.9,16,5.2,16,10.1,16
2012/10/18 10:51,4.8,16,4.9,16,7.9,2
2012/10/18 10:52,4.7,16,4.9,16,11.8,16